Regional Weather Roundup
Issued by NWS Huntsville, AL

Home | Current Version | Previous Version | Text Only | Print | Product List | Glossary On
Versions: 1 2 3 4 5 6 7 8 9 10 11 12 13 14 15 16 17 18 19 20 21 22 23 24 25 26 27 28 29 30 31 32 33 34 35 36 37 38 39 40 41 42 43 44 45 46 47 48 49 50
000
ASUS44 KHUN 041810
RWRHUN

WEATHER ROUNDUP FOR THE TENNESSEE VALLEY
NATIONAL WEATHER SERVICE HUNTSVILLE AL
1200 PM CST WED MAR 04 2015

ALZ001>004-041900-
NORTHWEST ALABAMA

CITY           SKY/WX    TMP DP  RH WIND       PRES   REMARKS
COURTLAND HCN    N/A     70 N/A N/A SW14        N/A
RUSSELLVILLE     N/A     70 N/A N/A MISG        N/A
SHOALS AIRPORT LGT RAIN  68  63  84 SW7       29.87F
6HR MIN TEMP:  66; 6HR MAX TEMP:  70; 6HR PCP:  0.02;

$$

ALZ005>007-016-041900-
NORTH CENTRAL ALABAMA

CITY           SKY/WX    TMP DP  RH WIND       PRES   REMARKS
DECATUR AP     CLOUDY    70  63  78 S17       29.90F
6HR MIN TEMP:  63; 6HR MAX TEMP:  70; 6HR PCP:  0.01;

HUNTSVILLE AP  CLOUDY    72  63  73 SW18G26   29.90F
6HR MIN TEMP:  65; 6HR MAX TEMP:  73; 6HR PCP: TRACE;

HUN NWS/UAH      N/A     70  60  70 S16         N/A
MERIDIANVILLE  PTSUNNY   68  59  73 S18G26    29.91F
REDSTONE ARSN  CLOUDY    70  62  76 SW17G23   29.90F
VINEMONT AP    CLOUDY    67  63  86 S18       29.95F
$$

ALZ008>010-041900-
NORTHEAST ALABAMA

CITY           SKY/WX    TMP DP  RH WIND       PRES   REMARKS
ALBERTVILLE    CLOUDY    68  64  88 S8        29.95F
FORT PAYNE     CLOUDY    68  59  73 SW12G20   29.94F
SCOTTSBORO AP  PTSUNNY   70  63  78 SW13G25   29.92F
SCOTTSBORO HCN   N/A     70 N/A N/A MISG        N/A
VALLEY HEAD      N/A     66 N/A N/A MISG        N/A
$$

TNZ076-096-097-041900-
SOUTHEASTERN MIDDLE TENNESSEE

CITY           SKY/WX    TMP DP  RH WIND       PRES   REMARKS
TULLAHOMA      CLOUDY    64  61  88 SW16      29.88F
WINCHESTER     CLOUDY    70  61  73 SW14      29.89F
$$

...SURROUNDING SITES...

CITY           SKY/WX    TMP DP  RH WIND       PRES   REMARKS
ATLANTA        PTSUNNY   72  59  63 W16G22    30.02F
ANNISTON       PTSUNNY   70  62  76 SW9G20    29.99F
BIRMINGHAM     PTSUNNY   72  63  73 S18       29.98F
CHATTANOOGA    PTSUNNY   70  60  70 S17G36    29.91F
CORINTH        RAIN      57  55  94 N9G17     29.87S
DALTON         CLOUDY    64  63  94 SE7       29.96F
GADSDEN        CLOUDY    66  61  82 SW7       29.96F
GOLDEN TRNGL   CLOUDY    75  64  69 S18G24    29.90F
HALEYVILLE       N/A     69  64  84 SW17G23   29.93F
JACKSON TN     CLOUDY    42  39  89 N22G28    29.96R FOG
LEWISBURG      CLOUDY    54  53  96 N5        29.89S
MEMPHIS        RAIN      40  37  89 N15G22    29.98R VSB 3/4 WCI  32
MURFREESBORO   CLOUDY    52  52 100 N8        29.92S
NASHVILLE      CLOUDY    47  45  93 N12       29.94F
OXFORD MS      CLOUDY    61  59  94 NW14      29.89R
ROME           CLOUDY    69  62  78 W5        29.96F
SAVANNAH       CLOUDY    54  54 100 N12       29.89S
TUPELO         CLOUDY    69  65  86 W5        29.86F
TUSCALOOSA     PTSUNNY   76  64  66 S17G26    29.94F
$$

...GULF COAST WEATHER...

CITY           SKY/WX    TMP DP  RH WIND       PRES   REMARKS
GULFPORT       CLOUDY    71  67  87 S10       30.00F
PASCAGOULA     PTSUNNY   78  69  73 S16G24    30.00F
MOBILE         PTSUNNY   78  66  66 S14G25    30.01F
GULF SHORES    FAIR      75  69  79 S14G20    30.03F
PENSACOLA      FAIR      75  68  78 S12       30.03F
DESTIN         CLOUDY    71  66  84 SE12      30.06F
APPALACHICOLA  PTSUNNY   74  65  73 S14       30.10F
$$




USA.gov is the U.S. government's official web portal to all federal, state and local government web resources and services.